FW6802 Weather Reports


Display with metric or nautical units.
time (UTC)temp
F
wind
direction
speed
MPH
gust
MPH
rain 1hr
in
rain 24hr
in
rain mn
in
humidity
%
barometer
mb
20260903163819 96 197 7.0 12.0 0.00 0.00 0.00 53 1014.0
20260903162802 96 231 5.0 13.0 0.00 0.00 0.00 56 1014.0
20260903162302 95 230 3.0 13.0 0.00 0.00 0.00 57 1014.0
20260903161802 95 216 5.0 13.0 0.00 0.00 0.00 57 1014.4
20260903160747 94 210 4.0 13.0 0.00 0.00 0.00 58 1014.3
20260903160247 94 206 4.0 13.0 0.00 0.00 0.00 60 1014.2
20260903155747 94 221 5.0 13.0 0.00 0.00 0.00 57 1014.2
20260903154730 94 200 4.0 13.0 0.00 0.00 0.00 62 1014.2
20260903154230 93 214 3.0 13.0 0.00 0.00 0.00 63 1014.3
20260903153730 92 220 3.0 13.0 0.00 0.00 0.00 64 1014.5
20260903153230 92 194 3.0 13.0 0.00 0.00 0.00 64 1014.5
20260903152729 92 206 3.0 13.0 0.00 0.00 0.00 65 1014.3
20260903152229 91 208 4.0 13.0 0.00 0.00 0.00 64 1013.9
20260903151728 91 204 4.0 13.0 0.00 0.00 0.00 65 1014.1
20260903151225 91 206 4.0 13.0 0.00 0.00 0.00 65 1014.2
20260903150725 90 203 3.0 13.0 0.00 0.00 0.00 67 1014.3
20260903150224 90 219 4.0 13.0 0.00 0.00 0.00 67 1014.4
20260903145723 89 201 4.0 13.0 0.00 0.00 0.00 68 1014.2
20260903145223 89 205 3.0 13.0 0.00 0.00 0.00 68 1014.0
20260903144722 89 198 3.0 13.0 0.00 0.00 0.00 69 1014.0
20260903144222 88 178 3.0 13.0 0.00 0.00 0.00 70 1014.3
20260903142650 87 201 3.0 13.0 0.00 0.00 0.00 72 1014.3
20260903142150 86 199 4.0 13.0 0.00 0.00 0.00 72 1013.9
20260903141650 86 194 4.0 13.0 0.00 0.00 0.00 73 1014.0
20260903140635 85 204 3.0 13.0 0.00 0.00 0.00 74 1014.2
20260903140134 85 223 3.0 13.0 0.00 0.00 0.00 75 1014.1
20260903135634 84 221 4.0 13.0 0.00 0.00 0.00 76 1014.2
20260903135133 84 207 3.0 13.0 0.00 0.00 0.00 77 1014.2
20260903134632 83 207 3.0 13.0 0.00 0.00 0.00 77 1014.3
20260903134132 83 199 3.0 13.0 0.00 0.00 0.00 77 1014.4
20260903133632 83 215 2.0 13.0 0.00 0.00 0.00 77 1014.5
20260903133131 83 198 2.0 13.0 0.00 0.00 0.00 78 1014.4
20260903132630 82 196 3.0 13.0 0.00 0.00 0.00 79 1014.4
20260903132129 82 200 2.0 13.0 0.00 0.00 0.00 79 1014.5
20260903131628 82 219 4.0 13.0 0.00 0.00 0.00 80 1014.7
20260903131127 81 216 2.0 13.0 0.00 0.00 0.00 81 1014.4
20260903125554 80 185 2.0 13.0 0.00 0.00 0.00 84 1014.5
20260903125053 79 199 1.0 13.0 0.00 0.00 0.00 85 1014.5
20260903124553 79 188 2.0 13.0 0.00 0.00 0.00 85 1014.5
20260903124053 78 187 2.0 13.0 0.00 0.00 0.00 85 1014.7
20260903123552 78 177 2.0 13.0 0.00 0.00 0.00 86 1014.6
20260903123051 78 173 2.0 13.0 0.00 0.00 0.00 86 1014.5
20260903122550 77 195 2.0 13.0 0.00 0.00 0.00 87 1014.4
20260903122050 77 189 2.0 13.0 0.00 0.00 0.00 87 1014.5
20260903121550 77 187 0.0 13.0 0.00 0.00 0.00 87 1014.3
20260903121049 77 189 2.0 13.0 0.00 0.00 0.00 88 1014.1
20260903120548 76 196 2.0 13.0 0.00 0.00 0.00 88 1014.3
20260903120048 76 186 1.0 13.0 0.00 0.00 0.00 88 1014.3
20260903115547 76 184 1.0 13.0 0.00 0.00 0.00 88 1014.1
20260903115047 76 187 2.0 13.0 0.00 0.00 0.00 88 1014.1
20260903114546 76 180 2.0 13.0 0.00 0.00 0.00 88 1014.2
20260903114045 76 166 1.0 13.0 0.00 0.00 0.00 88 1014.2
20260903113545 76 179 1.0 13.0 0.00 0.00 0.00 88 1014.0
20260903113045 76 179 1.0 13.0 0.00 0.00 0.00 88 1014.0
20260903112545 76 178 0.0 13.0 0.00 0.00 0.00 88 1014.1
20260903111529 76 175 2.0 13.0 0.00 0.00 0.00 88 1014.2
20260903111029 76 189 1.0 13.0 0.00 0.00 0.00 88 1014.1
20260903110529 76 189 2.0 13.0 0.00 0.00 0.00 88 1013.8
20260903110029 76 189 1.0 13.0 0.00 0.00 0.00 88 1013.8
20260903105013 76 188 1.0 13.0 0.00 0.00 0.00 88 1013.5
20260903103958 76 187 2.0 13.0 0.00 0.00 0.00 88 1014.1
20260903103458 76 185 0.0 13.0 0.00 0.00 0.00 88 1013.9
20260903102957 76 186 1.0 13.0 0.00 0.00 0.00 88 1014.0
20260903101941 77 184 1.0 13.0 0.00 0.00 0.00 88 1013.9
20260903101440 77 184 1.0 13.0 0.00 0.00 0.00 88 1013.8
20260903100940 77 184 1.0 13.0 0.00 0.00 0.00 88 1013.7
20260903100439 77 184 1.0 13.0 0.00 0.00 0.00 88 1013.7
20260903095939 77 184 1.0 13.0 0.00 0.00 0.00 88 1013.6
20260903094923 77 184 1.0 13.0 0.00 0.00 0.00 88 1013.6
20260903094422 77 183 1.0 13.0 0.00 0.00 0.00 87 1013.6
20260903093921 77 181 1.0 13.0 0.00 0.00 0.00 87 1013.7
20260903093420 77 181 1.0 13.0 0.00 0.00 0.00 87 1013.8
20260903092919 77 181 0.0 13.0 0.00 0.00 0.00 87 1013.5
20260903092418 77 181 0.0 13.0 0.00 0.00 0.00 87 1013.6
20260903091917 78 181 0.0 13.0 0.00 0.00 0.00 87 1013.7
20260903091417 77 181 0.0 13.0 0.00 0.00 0.00 87 1013.5
20260903090402 78 181 0.0 13.0 0.00 0.00 0.00 86 1013.7
20260903085901 78 181 0.0 13.0 0.00 0.00 0.00 86 1013.6
20260903085400 78 181 0.0 13.0 0.00 0.00 0.00 86 1013.6
20260903084859 78 181 0.0 13.0 0.00 0.00 0.00 86 1013.7
20260903084359 78 181 0.0 13.0 0.00 0.00 0.00 86 1013.7
20260903083858 78 181 0.0 13.0 0.00 0.00 0.00 86 1013.6
20260903082842 78 181 0.0 13.0 0.00 0.00 0.00 85 1013.7
20260903081826 79 181 0.0 13.0 0.00 0.00 0.00 85 1013.8
20260903081326 79 181 1.0 13.0 0.00 0.00 0.00 85 1013.8
20260903080825 79 184 1.0 13.0 0.00 0.00 0.00 85 1013.6
20260903080325 79 188 0.0 13.0 0.00 0.00 0.00 85 1013.5
20260903075825 79 188 1.0 13.0 0.00 0.00 0.00 85 1013.7
20260903074809 79 187 2.0 13.0 0.00 0.00 0.00 84 1013.5
20260903074309 79 185 1.0 13.0 0.00 0.00 0.00 84 1013.6
20260903073809 79 184 1.0 13.0 0.00 0.00 0.00 84 1013.4
20260903073308 79 184 0.0 13.0 0.00 0.00 0.00 84 1013.5
20260903072808 79 184 2.0 13.0 0.00 0.00 0.00 84 1013.6
20260903072308 79 184 1.0 13.0 0.00 0.00 0.00 84 1013.6
20260903071252 79 184 2.0 13.0 0.00 0.00 0.00 84 1013.5
20260903070751 79 183 1.0 13.0 0.00 0.00 0.00 84 1013.4
20260903070251 79 183 1.0 13.0 0.00 0.00 0.00 84 1013.5
20260903065236 80 182 2.0 13.0 0.00 0.00 0.00 83 1013.3
20260903064736 80 180 1.0 13.0 0.00 0.00 0.00 83 1013.6
20260903064236 80 179 1.0 13.0 0.00 0.00 0.00 83 1013.7
20260903063736 80 179 0.0 13.0 0.00 0.00 0.00 83 1013.3
20260903063236 80 179 0.0 13.0 0.00 0.00 0.00 82 1013.4
20260903062736 80 179 1.0 13.0 0.00 0.00 0.00 82 1013.3
20260903061719 81 179 0.0 13.0 0.00 0.00 0.00 82 1013.4
20260903061218 81 166 1.0 13.0 0.00 0.00 0.00 82 1013.6
20260903060202 81 185 2.0 13.0 0.00 0.00 0.00 82 1013.6
20260903055702 81 156 1.0 13.0 0.00 0.00 0.00 82 1013.5
20260903055202 81 187 2.0 13.0 0.00 0.00 0.00 82 1013.2
20260903054146 81 187 1.0 13.0 0.00 0.00 0.00 81 1013.4
20260903053646 81 187 1.0 13.0 0.00 0.00 0.00 81 1013.8
20260903053145 81 186 1.0 13.0 0.00 0.00 0.00 81 1013.5
20260903052644 81 185 1.0 13.0 0.00 0.00 0.00 81 1013.4
20260903052143 81 184 1.0 13.0 0.00 0.00 0.00 81 1013.6
20260903051127 81 184 0.0 13.0 0.00 0.00 0.00 81 1013.2
20260903050110 82 184 0.0 13.0 0.00 0.00 0.00 80 1013.3
20260903045610 82 183 1.0 13.0 0.00 0.00 0.00 80 1013.3
20260903045110 82 183 0.0 13.0 0.00 0.00 0.00 80 1013.3
20260903044609 82 176 0.0 13.0 0.00 0.00 0.00 80 1013.0
20260903044108 82 186 1.0 13.0 0.00 0.00 0.00 80 1013.2
20260903043052 82 170 1.0 13.0 0.00 0.00 0.00 80 1013.2
20260903042551 82 168 1.0 13.0 0.00 0.00 0.00 80 1012.8
20260903042050 82 166 2.0 13.0 0.00 0.00 0.00 79 1012.9
20260903041549 83 165 1.0 13.0 0.00 0.00 0.00 79 1013.1
20260903041049 83 165 0.0 13.0 0.00 0.00 0.00 79 1013.1
20260903040548 83 165 1.0 13.0 0.00 0.00 0.00 79 1013.0
20260903040047 83 192 2.0 13.0 0.00 0.00 0.00 79 1013.0
20260903035547 83 191 1.0 13.0 0.00 0.00 0.00 78 1013.1
20260903035047 83 192 1.0 13.0 0.00 0.00 0.00 79 1013.0
20260903034547 83 189 1.0 13.0 0.00 0.00 0.00 79 1013.2
20260903034046 83 182 2.0 13.0 0.00 0.00 0.00 79 1013.0
20260903033545 83 170 1.0 13.0 0.00 0.00 0.00 78 1013.0
20260903033044 83 165 1.0 13.0 0.00 0.00 0.00 79 1013.1
20260903032544 84 178 2.0 13.0 0.00 0.00 0.00 79 1013.4
20260903032044 84 179 1.0 13.0 0.00 0.00 0.00 78 1013.2
20260903031544 84 179 1.0 13.0 0.00 0.00 0.00 78 1013.2
20260903030528 84 183 1.0 13.0 0.00 0.00 0.00 78 1013.2
20260903030027 84 183 1.0 13.0 0.00 0.00 0.00 78 1013.3
20260903025010 84 186 0.0 13.0 0.00 0.00 0.00 78 1013.4
20260903024510 84 186 1.0 13.0 0.00 0.00 0.00 77 1013.3
20260903024011 84 186 0.0 13.0 0.00 0.00 0.00 77 1013.7
20260903022954 85 186 1.0 13.0 0.00 0.00 0.00 76 1013.4
20260903022453 85 187 1.0 13.0 0.00 0.00 0.00 76 1013.3
20260903021436 85 178 2.0 13.0 0.00 0.00 0.00 75 1013.2
20260903020419 85 173 2.0 13.0 0.00 0.00 0.00 75 1013.3
20260903015919 85 169 2.0 13.0 0.00 0.00 0.00 74 1013.2
20260903015418 85 177 2.0 13.0 0.00 0.00 0.00 74 1013.4
20260903014918 85 177 2.0 13.0 0.00 0.00 0.00 74 1013.4
20260903013902 86 172 1.0 13.0 0.00 0.00 0.00 74 1013.2
20260903013401 86 174 1.0 13.0 0.00 0.00 0.00 74 1013.2
20260903012900 86 175 1.0 13.0 0.00 0.00 0.00 73 1013.1
20260903012359 86 174 1.0 13.0 0.00 0.00 0.00 73 1013.2
20260903011859 86 170 1.0 13.0 0.00 0.00 0.00 73 1012.9
20260903011358 86 179 2.0 13.0 0.00 0.00 0.00 73 1012.9
20260903010858 86 193 2.0 13.0 0.00 0.00 0.00 73 1012.9
20260903010358 86 198 2.0 13.0 0.00 0.00 0.00 72 1012.8
20260903005342 87 204 2.0 13.0 0.00 0.00 0.00 72 1012.8
20260903004842 87 200 2.0 13.0 0.00 0.00 0.00 72 1012.6
20260903004342 87 204 2.0 13.0 0.00 0.00 0.00 72 1012.9
20260903003327 88 201 3.0 13.0 0.00 0.00 0.00 71 1013.0
20260903002827 88 212 2.0 13.0 0.00 0.00 0.00 71 1012.9
20260903001811 89 186 3.0 13.0 0.00 0.00 0.00 70 1012.5
20260903001311 89 184 2.0 13.0 0.00 0.00 0.00 69 1012.9
20260903000811 89 183 2.0 13.0 0.00 0.00 0.00 69 1012.5
20260903000311 90 190 2.0 13.0 0.00 0.00 0.00 69 1012.7
20260902235811 90 206 2.0 13.0 0.00 0.00 0.00 68 1012.7
20260902234755 91 188 3.0 13.0 0.00 0.00 0.00 67 1012.7
20260902233739 92 183 1.0 13.0 0.00 0.00 0.00 66 1012.5
20260902233239 92 179 2.0 13.0 0.00 0.00 0.00 65 1012.9
20260902232738 93 186 2.0 13.0 0.00 0.00 0.00 63 1010.5
20260902232237 93 207 2.0 13.0 0.00 0.00 0.00 63 1010.9
20260902231736 93 212 3.0 13.0 0.00 0.00 0.00 61 1011.1
20260902231236 93 210 3.0 13.0 0.00 0.00 0.00 61 1011.4
20260902230734 94 211 4.0 13.0 0.00 0.00 0.00 60 1011.9
20260902230233 94 215 5.0 13.0 0.00 0.00 0.00 59 1012.4
20260902225732 94 209 4.0 13.0 0.00 0.00 0.00 58 1012.8
20260902225231 94 211 4.0 13.0 0.00 0.00 0.00 58 1013.1
20260902224731 95 217 4.0 13.0 0.00 0.00 0.00 58 1013.4
20260902224230 94 209 3.0 13.0 0.00 0.00 0.00 58 1013.6
20260902223729 95 222 5.0 13.0 0.00 0.00 0.00 58 1013.5
20260902223229 95 203 4.0 13.0 0.00 0.00 0.00 58 1013.6
20260902222214 95 204 4.0 13.0 0.00 0.00 0.00 57 1013.2
20260902221713 95 223 5.0 13.0 0.00 0.00 0.00 57 1013.4
20260902221213 96 220 4.0 13.0 0.00 0.00 0.00 56 1013.3
20260902220157 96 216 4.0 13.0 0.00 0.00 0.00 57 1013.0
20260902215657 96 205 4.0 13.0 0.00 0.00 0.00 57 1013.3
20260902215156 96 197 4.0 13.0 0.00 0.00 0.00 56 1012.8
20260902214655 96 199 5.0 13.0 0.00 0.00 0.00 56 1013.5
20260902214155 96 203 5.0 13.0 0.00 0.00 0.00 56 1013.5
20260902213655 96 207 5.0 13.0 0.00 0.00 0.00 55 1014.0
20260902213155 97 206 6.0 13.0 0.00 0.00 0.00 53 1013.9
20260902212653 97 227 4.0 13.0 0.00 0.00 0.00 54 1014.1
20260902212152 97 210 5.0 13.0 0.00 0.00 0.00 53 1013.3
20260902211651 97 230 5.0 13.0 0.00 0.00 0.00 52 1013.3
20260902211151 97 226 5.0 13.0 0.00 0.00 0.00 52 1013.0
20260902210650 97 216 4.0 13.0 0.00 0.00 0.00 54 1013.1
20260902210149 97 211 7.0 13.0 0.00 0.00 0.00 54 1012.9
20260902205648 97 220 6.0 12.0 0.00 0.00 0.00 52 1013.0
20260902205147 98 211 6.0 12.0 0.00 0.00 0.00 51 1013.5
20260902204647 98 226 4.0 12.0 0.00 0.00 0.00 53 1013.4
20260902203631 97 214 5.0 12.0 0.00 0.00 0.00 54 1013.4
20260902203131 97 201 5.0 12.0 0.00 0.00 0.00 54 1013.4
20260902202631 97 220 6.0 12.0 0.00 0.00 0.00 52 1013.3
20260902202130 97 201 6.0 12.0 0.00 0.00 0.00 53 1013.2
20260902201630 98 216 6.0 12.0 0.00 0.00 0.00 53 1013.7
20260902201129 98 211 6.0 12.0 0.00 0.00 0.00 51 1013.7
20260902200628 98 211 5.0 12.0 0.00 0.00 0.00 52 1013.7
20260902200128 98 218 5.0 12.0 0.00 0.00 0.00 51 1013.6
20260902195627 98 221 6.0 12.0 0.00 0.00 0.00 52 1013.6
20260902195126 97 200 5.0 12.0 0.00 0.00 0.00 53 1013.6
20260902194626 98 203 5.0 12.0 0.00 0.00 0.00 52 1013.8
20260902193610 98 214 8.0 16.0 0.00 0.00 0.00 51 1013.8
20260902193110 97 215 3.0 12.0 0.00 0.00 0.00 52 1014.2
20260902192610 98 187 7.0 12.0 0.00 0.00 0.00 52 1013.8
20260902191553 98 220 6.0 12.0 0.00 0.00 0.00 52 1014.1
20260902191052 97 212 6.0 12.0 0.00 0.00 0.00 52 1014.4
20260902190035 97 195 6.0 13.0 0.00 0.00 0.00 53 1014.0
20260902184505 97 211 5.0 12.0 0.00 0.00 0.00 54 1014.4
20260902183449 97 200 6.0 12.0 0.00 0.00 0.00 53 1014.2
20260902182948 98 190 5.0 12.0 0.00 0.00 0.00 53 1014.2
20260902181933 97 200 4.0 12.0 0.00 0.00 0.00 54 1014.4
20260902181432 97 211 5.0 13.0 0.00 0.00 0.00 55 1014.5
20260902180932 96 223 5.0 13.0 0.00 0.00 0.00 55 1014.4
20260902180431 96 229 5.0 13.0 0.00 0.00 0.00 54 1014.4
20260902175930 96 181 7.0 13.0 0.00 0.00 0.00 54 1014.5
20260902175430 96 174 4.0 14.0 0.00 0.00 0.00 56 1014.5
20260902174930 96 200 7.0 14.0 0.00 0.00 0.00 55 1014.4
20260902174429 96 200 6.0 14.0 0.00 0.00 0.00 54 1014.6
20260902173929 96 200 6.0 13.0 0.00 0.00 0.00 56 1014.5
20260902173428 95 203 5.0 12.0 0.00 0.00 0.00 56 1014.7
20260902172928 95 188 6.0 12.0 0.00 0.00 0.00 56 1014.7
20260902172427 95 226 5.0 12.0 0.00 0.00 0.00 57 1014.6
20260902171927 95 183 7.0 14.0 0.00 0.00 0.00 57 1014.7
20260902171426 95 220 6.0 14.0 0.00 0.00 0.00 57 1015.2
20260902170925 95 186 6.0 14.0 0.00 0.00 0.00 56 1014.8
20260902170424 95 204 6.0 11.0 0.00 0.00 0.00 56 1014.8
20260902165923 95 204 5.0 11.0 0.00 0.00 0.00 57 1014.9